Hourly Weather Roundup
Issued by NWS Central Illinois

Home | Current Version | Previous Version | Text Only | Print | Product List | Glossary On
Versions: 1 2 3 4 5 6 7 8 9 10 11 12 13 14 15 16 17 18 19 20 21 22 23 24 25 26 27 28 29 30 31 32 33 34 35 36 37 38 39 40 41 42 43 44 45 46 47 48 49 50
268
NZUS43 KILX 080410
HWRILX

AREA WEATHER ROUNDUP
NATIONAL WEATHER SERVICE, LINCOLN IL
1000 PM CST WED DEC 07 2016


CITY           SKY/WX    TMP DP  RH WIND       PRES   REMARKS
BLOOMINGTON    MOCLDY    24  16  71 W21G28    30.23R WCI   9
CHAMPAIGN      CLEAR     26  18  71 W15       30.23R WCI  14
DANVILLE       PTCLDY    27  20  77 W9        30.19R WCI  17
DECATUR        CLOUDY    27  18  69 W12       30.26R WCI  17
EFFINGHAM      MOCLDY    31  24  73 W10       30.28S WCI  23
FLORA          PTCLDY    34  24  67 NW9       30.28R WCI  26
GALESBURG      MOCLDY    21  15  77 W14       30.27S WCI   8
JACKSONVILLE   PTCLDY    26  15  64 W17G24    30.31R WCI  13
LACON          CLOUDY    24  14  64 W14G21    30.24S WCI  12
LAWRENCEVILLE  CLOUDY    33  24  69 W9        30.26R WCI  25
LITCHFIELD     CLEAR     28  19  68 NW12G22   30.29R WCI  18
$$


CITY           SKY/WX    TMP DP  RH WIND       PRES   REMARKS
LINCOLN        MOCLDY    28  17  64 W9G18     30.27S WCI  19
MACOMB         CLEAR     22  15  72 W18G24    30.33R WCI   8
MATTOON        CLEAR     27  18  69 W13       30.25R WCI  16
MT CARMEL AP   CLOUDY    33  26  76 W8        30.26R WCI  25
OLNEY-NOBLE AP CLOUDY    32  27  80 NW13      30.28R WCI  22
PARIS          CLEAR     28  23  80 W14       30.25R WCI  17
PEORIA         CLOUDY    24  12  60 NW13G23   30.27R WCI  12
PONTIAC        CLOUDY    26  19  75 W16G23    30.23S WCI  14
RANTOUL        PTCLDY    28  20  71 W17       30.22R WCI  16
SPRINGFIELD    PTCLDY    28  18  66 W12       30.29R WCI  18
TAYLORVILLE    MOCLDY    28  18  66 W14       30.29R WCI  16
$$

...REGIONAL REPORTS...


CITY           SKY/WX    TMP DP  RH WIND       PRES   REMARKS
CHICAGO O`HARE CLOUDY    23  14  68 W18G28    30.14S WCI   9
KANKAKEE       CLOUDY    26  17  68 W16G23    30.20R WCI  13
MOLINE         PTCLDY    23  12  62 W18G24    30.25R WCI   9
MOUNT STERLING CLEAR     23  13  65 W14G22    30.32R WCI  11
MOUNT VERNON   NOT AVBL
PITTSFIELD     CLEAR     26  15  61 W12G21    30.34R WCI  16
QUINCY         CLEAR     23  12  62 W13       30.33R WCI  11
ROCKFORD       FLURRIES  24  14  65 W13G23    30.17R WCI  12
$$


CITY           SKY/WX    TMP DP  RH WIND       PRES   REMARKS
BURLINGTON     CLEAR     22  12  65 W12       30.30R WCI  10
CEDAR RAPIDS   CLEAR     18  13  80 W21       30.23S WCI   1
DES MOINES     CLEAR     19   8  62 NW21G26   30.34R WCI   3
KIRKSVILLE     CLEAR     20  10  65 W12       30.36R WCI   8
OTTUMWA        CLEAR     20   9  62 W13       30.30S WCI   7
ST LOUIS       PTCLDY    31  17  56 NW9       30.33R WCI  23
$$


CITY           SKY/WX    TMP DP  RH WIND       PRES   REMARKS
TERRE HAUTE    MOCLDY    30  21  69 NW12      30.24R WCI  20
EVANSVILLE     CLOUDY    35  22  58 NW5       30.27R WCI  31
INDIANAPOLIS   PTCLDY    27  21  78 W10       30.18S WCI  17
LAFAYETTE      CLEAR     26  19  74 W13       30.20R WCI  15
MADISON        FLURRIES  21  11  65 W12G23    30.08F WCI   9
MILWAUKEE      FLURRIES  23  12  62 W13G26    30.08S WCI  11
$$






USA.gov is the U.S. government's official web portal to all federal, state and local government web resources and services.